Flag for Canada Weather past 2 weeks in Prince Rupert, British Columbia, Canada

Now
59 °F

Broken clouds.


Feels Like: 57 °F
Forecast: 55 / 66 °F
Wind: 9 mph from Southeast

Location: Prince Rupert

Current Time: Jul 27, 2014 at 9:47:15 PM

Latest Report: Jul 27, 2014 at 9:00 PM


Visibility: 9 mi

Pressure: 30.15 "Hg

Humidity: 88%

Dew point: 55 °F

Location of Prince RupertLocation

Historic Weather in Prince Rupert — Graph

°F

Prince Rupert temperature yesterday

Maximum temperature yesterday: 59 °F (at 12:00 AM)
Minimum temperature yesterday: 55 °F (at 3:00 AM)
Average temperature yesterday: 57 °F

Past Weeks' High & Low Weather Summary

 TemperatureHumidityPressure
High68 °F (Jul 13, 5:00 PM)100% (Jul 12, 11:00 PM)30.24 "Hg (Jul 12, 11:00 PM)
Low50 °F (Jul 17, 5:00 AM)68% (Jul 25, 3:00 PM)29.67 "Hg (Jul 19, 5:03 AM)
Average57 °F91%30.02 "Hg
* Reported Jul 12 8:00 PM — Jul 27 8:00 PM, Prince Rupert, Weather by CustomWeather, © 2014

Note: Actual official high and low records may vary slightly from our data, if they occured in-between our weather recording intervals... More about our weather records

Advertising

Prince Rupert weather history for previous 24 hours

 ConditionsComfort  
Time TempWeatherWind HumidityBarometerVisibility
8:00 PM
Jul 27
61 °FCloudy.9 mph88%30.16 "Hg9 mi
7:00 PM59 °FLight rain. More clouds than sun.13 mph94%30.17 "Hg9 mi
6:53 PM59 °FLight rain. More clouds than sun.10 mph94%30.17 "Hg9 mi
6:00 PM61 °FMostly cloudy.13 mph88%30.17 "Hg9 mi
5:00 PM61 °FMostly cloudy.12 mph88%30.18 "Hg9 mi
4:00 PM61 °FLight rain. Mostly cloudy.6 mph88%30.17 "Hg9 mi
3:57 PM61 °FLight rain. Overcast.7 mph88%30.17 "Hg9 mi
2:57 PM59 °FLight rain. Mostly cloudy.7 mph94%30.17 "Hg9 mi
1:00 PM59 °FLight rain. Overcast.8 mph94%30.16 "Hg7 mi
12:00 PM59 °FLight rain. Mostly cloudy.3 mph94%30.15 "Hg9 mi
11:02 AM57 °FLight rain. Overcast.7 mph94%30.15 "Hg9 mi
10:00 AM59 °FOvercast.6 mph88%30.14 "Hg9 mi
9:00 AM57 °FOvercast.5 mph94%30.14 "Hg9 mi
8:00 AM57 °FMostly cloudy.7 mph94%30.13 "Hg9 mi
7:00 AM57 °FCloudy.6 mph94%30.13 "Hg9 mi
6:00 AM57 °FLight rain. Mostly cloudy.7 mph94%30.13 "Hg9 mi
5:00 AM55 °FLight rain. Overcast.6 mph100%30.13 "Hg9 mi
4:00 AM55 °FOvercast.6 mph100%30.12 "Hg9 mi
3:00 AM57 °FOvercast.8 mph94%30.11 "Hg9 mi
2:03 AM55 °FOvercast.7 mph100%30.11 "Hg9 mi
1:45 AM55 °FLight rain. Overcast.8 mph100%30.11 "Hg8 mi
1:04 AM55 °FLight rain. Fog.6 mph100%30.11 "Hg6 mi
12:03 AM55 °FRain. Fog.7 mph100%30.11 "Hg3 mi
11:56 PM
Jul 26
55 °FLight rain. Fog.7 mph100%30.11 "Hg5 mi
11:00 PM57 °FLight rain. Overcast.8 mph94%30.11 "Hg9 mi
9:00 PM57 °FLight rain. Mostly cloudy.8 mph94%30.09 "Hg9 mi
Weather by CustomWeather, © 2014

See weather overviewHow to use our weather pages